Regional Weather Roundup
Issued by NWS

Home | Current Version | Previous Version | Text Only | Print | Product List | Glossary On
Versions: 1 2 3 4 5 6 7 8 9 10 11 12 13 14 15 16 17 18 19 20 21 22 23 24 25 26 27 28 29 30 31 32 33 34 35 36 37 38 39 40 41 42 43 44 45 46 47 48 49 50
000
ASUS44 KFWD 131115
RWRTX
NORTH TEXAS HOURLY WEATHER ROUNDUP
NATIONAL WEATHER SERVICE FORT WORTH TX
500 AM CST SAT FEB 13 2016

NOTE: "FAIR" INDICATES FEW OR NO CLOUDS BELOW 12,000 FEET WITH NO
SIGNIFICANT WEATHER AND/OR OBSTRUCTIONS TO VISIBILITY.

TXZ118-119-131200-
DALLAS/FORT WORTH METROPLEX

CITY           SKY/WX    TMP DP  RH WIND       PRES   REMARKS
DFW AIRPORT    PTCLDY    41  29  62 N7        30.37R WCI  36
DALLAS LOVE    PTCLDY    44  29  55 N3        30.38R
FTW MEACHAM    CLEAR     42  30  62 NE7       30.38R WCI  38
DAL-EXECUTIVE  CLEAR     44  30  57 NE6       30.37R
FTW-ALLIANCE   CLEAR     40  29  64 NE7       30.38R WCI  35
FTW-NAS-JRB    CLEAR     43  31  62 N6        30.39R WCI  39
FTW-SPINKS     CLEAR     38  31  75 N7        30.39R WCI  33
ARLINGTON      CLEAR     41  31  67 N5        30.38R WCI  38
GRAND PRAIRIE  CLEAR     43  31  63 N6        30.39R WCI  39
MESQUITE       CLEAR     42  31  65 N8        30.38S WCI  37
LANCASTER      CLEAR     43  29  58 N3        30.38S
$$

TXZ091>094-102>105-117-120-121-131>134-131200-
NORTH CENTRAL TEXAS

CITY           SKY/WX    TMP DP  RH WIND       PRES   REMARKS
SHRMAN/DENISON CLEAR     37  29  71 NE7       30.41F WCI  32
GAINESVILLE    CLEAR     36  28  72 NE3       30.41F
BOWIE          CLEAR     38  28  67 E6        30.38R WCI  33
BRIDGEPORT     CLEAR     38  31  74 E3        30.41R
DECATUR        CLEAR     38  28  67 NE10      30.38S WCI  31
DENTON         CLEAR     39  29  67 NE7       30.39R WCI  34
MCKINNEY       CLEAR     38  29  70 N8        30.38F WCI  32
GREENVILLE     CLEAR     39  32  75 N5        30.39S WCI  36
ROCKWALL       CLEAR     40  31  70 NE7       30.37R WCI  35
TERRELL        CLEAR     40  31  70 NE9       30.38R WCI  34
WAXAHACHIE     CLEAR     43  33  68 N3        30.38R
CLEBURNE       CLEAR     43  34  70 NE10      30.37S WCI  37
GRANBURY       CLEAR     44  33  65 CALM      30.39S
$$

TXZ083>090-098>101-113>116-127>130-139>142-154-155-131200-
WESTERN NORTH TEXAS

CITY           SKY/WX    TMP DP  RH WIND       PRES   REMARKS
WICHITA FALLS  CLEAR     34  27  75 E8        30.38S WCI  27
WF-KICKAPOO    CLEAR     36  30  77 NE3       30.39F
VERNON         CLOUDY    35  26  69 NE5       30.40S WCI  31
ABILENE        CLEAR     42  34  73 CALM      30.33F
ABILENE-DYESS  CLEAR     37  32  84 CALM      30.32F
BRECKENRIDGE   CLEAR     42  33  71 E3        30.36S
GRAHAM         CLEAR     40  32  73 E3        30.35F
MINERAL WELLS  CLEAR     41  30  65 CALM      30.36R
STEPHENVILLE   CLEAR     42  33  71 NE5       30.38R WCI  39
COMANCHE       CLEAR     45  36  71 E5        30.35S
COLEMAN        CLEAR     38  31  76 CALM      30.34S
$$

TXZ143>147-156>162-174-175-131200-
CENTRAL TEXAS

CITY           SKY/WX    TMP DP  RH WIND       PRES   REMARKS
WACO           CLEAR     44  34  67 N9        30.35R WCI  39
WACO-MCGREGOR  CLEAR     43  35  73 N8        30.35R WCI  38
HILLSBORO      CLEAR     44  32  62 NE9       30.35S WCI  39
CORSICANA      CLEAR     44  35  70 N7        30.36S
MEXIA          CLEAR     46  37  69 N7        30.34R
HEARNE         CLEAR     42  38  85 CALM      30.33R
CAMERON        CLEAR     47  39  75 N6        30.33R
TEMPLE         PTCLDY    42  35  76 N7        30.34R WCI  38
KILLEEN        PTCLDY    44  36  72 N12       30.33R WCI  39
KILLEEN-SKYLRK PTCLDY    47  37  68 NE8       30.34R
FORT HOOD      PTCLDY    48  36  62 NE12      30.32R
GATESVILLE     PTCLDY    46  36  66 CALM      30.37R
HAMILTON       PTCLDY    45  36  70 NE3       30.35S
LAMPASAS       PTCLDY    50  39  65 N7        30.33R
$$

TXZ095>097-106>112-122>126-135>138-148>153-164>167-131200-
EAST TEXAS

CITY           SKY/WX    TMP DP  RH WIND       PRES   REMARKS
PARIS          CLEAR     37  25  60 N5        30.40S WCI  34
SULPHUR SPRNGS CLEAR     41  32  69 CALM      30.41S
MOUNT PLEASANT CLEAR     42  32  67 NE5       30.41R WCI  39
GILMER         CLOUDY    45  34  65 E5        30.38S
MINEOLA        CLEAR     39  34  81 CALM      30.39R
TYLER          CLEAR     44  33  65 NE5       30.36R
LONGVIEW       CLEAR     44  36  73 E7        30.37R
MARSHALL       CLEAR     45  35  68 E3        30.41S
ATHENS         CLEAR     45  32  61 NE5       30.35R
PALESTINE      CLEAR     50  36  60 NE7       30.36R
JACKSONVILLE   CLEAR     46  36  68 NE6       30.36R
HENDERSON      CLEAR     40  35  81 NE5       30.38R WCI  37
CENTER         FAIR      47  37  68 E5        30.37R
NACOGDOCHES    CLEAR     46  34  61 E6        30.35R
LUFKIN         CLEAR     48  38  68 NE8       30.35R
$$

SUPPLEMENTAL OBSERVATIONS (CENTRAL)

CITY           SKY/WX    TMP DP  RH WIND       PRES   REMARKS
LAKE TEXOMA      N/A     39  30  70 NE3         N/A
PAT MAYSE LAKE   N/A     36  30  80 N1          N/A
GREENVILLE       N/A     37  30  75 NE7         N/A  WCI  32
CEDAR HILL       N/A     43  32  65 NE5         N/A
ATHENS           N/A     45  34  65 NE5         N/A
LAKE LIMESTONE   N/A     48  37  66 NE3         N/A
MCGREGOR         N/A     43  36  75 N1          N/A
TEMPLE           N/A     50  34  53 N15         N/A
$$

SUPPLEMENTAL OBSERVATIONS (WEST)

CITY           SKY/WX    TMP DP  RH WIND       PRES   REMARKS
MILLERS CREEK    N/A     36  30  80 NE5         N/A  WCI  32
POSSUM KINGDOM   N/A     43  30  61 E8          N/A  WCI  38
GRANBURY         N/A     43  32  65 NE2         N/A
COMANCHE         N/A     45  32  61 E6          N/A
HAMBY            N/A     36  32  87 N1          N/A
IVIE RESERVOIR   N/A     41  32  70 CALM        N/A
COLORADO BEND    N/A     48  32  53 SE2         N/A
$$

SUPPLEMENTAL OBSERVATIONS (EAST)

CITY           SKY/WX    TMP DP  RH WIND       PRES   REMARKS
TEXARKANA        N/A     43  30  61 NE3         N/A
LINDEN           N/A     45  32  61 E6          N/A
LUFKIN           N/A     48  37  66 MISG        N/A
N SABINE NF      N/A     43  37  81 MISG        N/A
$$

SUPPLEMENTAL OBSERVATIONS ARE A COLLECTION OF AUTOMATED INSTRUMENTS
THAT ARE MAINTAINED BY A VARIETY OF FEDERAL AND STATE AGENCIES.
CERTAIN ELEMENTS...SUCH AS HUMIDITY VALUES AND SUSTAINED WIND
SPEEDS...MAY BE APPROXIMATED.




USA.gov is the U.S. government's official web portal to all federal, state and local government web resources and services.